Time,TemperatureF,DewpointF,PressureIn,WindDirection,WindDirectionDegrees,WindSpeedMPH,WindSpeedGustMPH,Humidity,HourlyPrecipIn,Conditions,Clouds,dailyrainin,SoftwareType,DateUTC
2013-07-17 00:01:00,73.2,72.6,29.08,WNW,292,0.0,0.0,98,0.00,CLR,FEW,0.00,WeatherDisplay:10.37,2013-07-17 04:01:00,
2013-07-17 00:02:00,73.2,72.6,29.08,WNW,292,0.0,0.0,98,0.00,CLR,FEW,0.00,WeatherDisplay:10.37,2013-07-17 04:02:00,
2013-07-17 00:03:00,73.2,72.6,29.08,WNW,292,0.0,0.0,98,0.00,CLR,FEW,0.00,WeatherDisplay:10.37,2013-07-17 04:03:00,
2013-07-17 00:08:00,73.0,72.4,29.08,WNW,292,0.0,0.0,98,0.00,CLR,FEW,0.00,WeatherDisplay:10.37,2013-07-17 04:08:00,
2013-07-17 00:13:00,73.0,72.4,29.08,North,360,0.0,0.0,98,0.00,CLR,FEW,0.00,WeatherDisplay:10.37,2013-07-17 04:13:00,
2013-07-17 00:18:00,73.0,72.4,29.09,WNW,292,0.0,0.0,98,0.00,CLR,FEW,0.00,WeatherDisplay:10.37,2013-07-17 04:18:00,
2013-07-17 00:23:00,72.9,72.3,29.09,West,270,0.0,0.0,98,0.00,CLR,FEW,0.00,WeatherDisplay:10.37,2013-07-17 04:23:00,
2013-07-17 00:28:00,72.9,72.3,29.08,WSW,248,0.0,0.0,98,0.00,CLR,FEW,0.00,WeatherDisplay:10.37,2013-07-17 04:28:00,
2013-07-17 00:33:00,72.9,72.3,29.08,ENE,68,0.0,0.0,98,0.00,CLR,FEW,0.00,WeatherDisplay:10.37,2013-07-17 04:33:00,
2013-07-17 00:38:00,72.9,72.3,29.08,NW,315,0.0,0.0,98,0.00,CLR,FEW,0.00,WeatherDisplay:10.37,2013-07-17 04:38:00,
2013-07-17 00:43:00,72.9,72.3,29.08,North,360,0.0,0.0,98,0.00,CLR,FEW,0.00,WeatherDisplay:10.37,2013-07-17 04:43:00,
2013-07-17 00:48:00,72.7,72.1,29.08,North,360,0.0,0.0,98,0.00,CLR,FEW,0.00,WeatherDisplay:10.37,2013-07-17 04:48:00,
2013-07-17 00:53:00,72.5,71.9,29.08,WSW,248,0.0,0.0,98,0.00,CLR,FEW,0.00,WeatherDisplay:10.37,2013-07-17 04:53:00,
2013-07-17 00:55:00,72.5,71.9,29.08,WSW,248,0.0,0.0,98,0.00,CLR,FEW,0.00,WeatherDisplay:10.37,2013-07-17 04:55:00,
2013-07-17 00:59:00,72.5,71.9,29.08,WSW,248,0.0,0.0,98,0.00,CLR,FEW,0.00,WeatherDisplay:10.37,2013-07-17 04:59:00,
2013-07-17 01:04:00,72.5,71.9,29.08,NW,315,0.0,0.0,98,0.00,CLR,FEW,0.00,WeatherDisplay:10.37,2013-07-17 05:04:00,
2013-07-17 01:09:00,72.5,71.9,29.08,WSW,248,0.0,0.0,98,0.00,CLR,FEW,0.00,WeatherDisplay:10.37,2013-07-17 05:09:00,
2013-07-17 01:14:00,72.5,71.9,29.07,NNW,338,0.0,0.0,98,0.00,CLR,FEW,0.00,WeatherDisplay:10.37,2013-07-17 05:14:00,
2013-07-17 01:19:00,72.3,71.7,29.07,WNW,292,0.0,0.0,98,0.00,CLR,FEW,0.00,WeatherDisplay:10.37,2013-07-17 05:19:00,
2013-07-17 01:24:00,72.3,71.7,29.07,NW,315,0.0,0.0,98,0.00,CLR,FEW,0.00,WeatherDisplay:10.37,2013-07-17 05:24:00,
2013-07-17 01:29:00,72.3,71.7,29.07,WNW,292,0.0,0.0,98,0.00,CLR,FEW,0.00,WeatherDisplay:10.37,2013-07-17 05:29:00,
2013-07-17 01:34:00,72.1,71.5,29.07,ESE,112,0.0,0.0,98,0.00,CLR,FEW,0.00,WeatherDisplay:10.37,2013-07-17 05:34:00,
2013-07-17 01:39:00,72.5,71.9,29.07,South,180,0.0,0.0,98,0.00,CLR,FEW,0.00,WeatherDisplay:10.37,2013-07-17 05:39:00,
2013-07-17 01:44:00,72.5,71.9,29.07,South,180,0.0,0.0,98,0.00,CLR,FEW,0.00,WeatherDisplay:10.37,2013-07-17 05:44:00,
2013-07-17 01:49:00,72.3,71.7,29.07,ESE,112,0.0,0.0,98,0.00,CLR,FEW,0.00,WeatherDisplay:10.37,2013-07-17 05:49:00,
2013-07-17 01:54:00,72.3,71.7,29.06,ESE,112,0.0,0.0,98,0.00,CLR,FEW,0.00,WeatherDisplay:10.37,2013-07-17 05:54:00,
2013-07-17 01:59:00,72.3,71.7,29.06,SSW,202,0.0,0.0,98,0.00,CLR,FEW,0.00,WeatherDisplay:10.37,2013-07-17 05:59:00,
2013-07-17 02:04:00,72.3,71.7,29.06,SSW,202,0.0,0.0,98,0.00,CLR,FEW,0.00,WeatherDisplay:10.37,2013-07-17 06:04:00,
2013-07-17 02:09:00,72.3,71.7,29.06,WNW,292,0.0,0.0,98,0.00,CLR,FEW,0.00,WeatherDisplay:10.37,2013-07-17 06:09:00,
2013-07-17 02:14:00,72.1,71.5,29.05,WNW,292,0.0,0.0,98,0.00,CLR,FEW,0.00,WeatherDisplay:10.37,2013-07-17 06:14:00,
2013-07-17 02:19:00,72.0,71.4,29.05,SE,135,0.0,0.0,98,0.00,CLR,FEW,0.00,WeatherDisplay:10.37,2013-07-17 06:19:00,
2013-07-17 02:24:00,72.3,71.7,29.05,South,180,0.0,0.0,98,0.00,CLR,FEW,0.00,WeatherDisplay:10.37,2013-07-17 06:24:00,
2013-07-17 02:29:00,72.3,71.7,29.06,SW,225,0.0,0.0,98,0.00,CLR,FEW,0.00,WeatherDisplay:10.37,2013-07-17 06:29:00,
2013-07-17 02:34:00,72.1,71.5,29.06,West,270,0.0,0.0,98,0.00,CLR,FEW,0.00,WeatherDisplay:10.37,2013-07-17 06:34:00,
2013-07-17 02:39:00,72.0,71.4,29.05,West,270,0.0,0.0,98,0.00,CLR,FEW,0.00,WeatherDisplay:10.37,2013-07-17 06:39:00,
2013-07-17 02:44:00,71.6,71.0,29.05,WNW,292,0.0,0.0,98,0.00,CLR,FEW,0.00,WeatherDisplay:10.37,2013-07-17 06:44:00,
2013-07-17 02:49:00,71.6,71.0,29.05,WNW,292,0.0,0.0,98,0.00,CLR,FEW,0.00,WeatherDisplay:10.37,2013-07-17 06:49:00,
2013-07-17 02:54:00,71.6,71.0,29.06,West,270,0.0,0.0,98,0.00,CLR,FEW,0.00,WeatherDisplay:10.37,2013-07-17 06:54:00,
2013-07-17 02:59:00,71.6,71.0,29.06,SW,225,0.0,0.0,98,0.00,CLR,FEW,0.00,WeatherDisplay:10.37,2013-07-17 06:59:00,
2013-07-17 03:04:00,71.4,70.8,29.05,NW,315,0.0,0.0,98,0.00,CLR,FEW,0.00,WeatherDisplay:10.37,2013-07-17 07:04:00,
2013-07-17 03:09:00,71.4,70.8,29.05,WSW,248,0.0,0.0,98,0.00,CLR,FEW,0.00,WeatherDisplay:10.37,2013-07-17 07:09:00,
2013-07-17 03:14:00,71.2,70.6,29.05,WSW,248,0.0,0.0,98,0.00,CLR,FEW,0.00,WeatherDisplay:10.37,2013-07-17 07:14:00,
2013-07-17 03:19:00,71.2,70.6,29.05,NE,45,0.0,0.0,98,0.00,CLR,FEW,0.00,WeatherDisplay:10.37,2013-07-17 07:19:00,
2013-07-17 03:24:00,71.2,70.6,29.05,SSE,158,0.0,0.0,98,0.00,CLR,FEW,0.00,WeatherDisplay:10.37,2013-07-17 07:24:00,
2013-07-17 03:29:00,71.4,70.8,29.05,SSW,202,0.0,0.0,98,0.00,CLR,FEW,0.00,WeatherDisplay:10.37,2013-07-17 07:29:00,
2013-07-17 03:34:00,71.4,70.8,29.05,SSW,202,0.0,0.0,98,0.00,CLR,FEW,0.00,WeatherDisplay:10.37,2013-07-17 07:34:00,
2013-07-17 03:39:00,71.2,70.6,29.05,NW,315,0.0,0.0,98,0.00,CLR,FEW,0.00,WeatherDisplay:10.37,2013-07-17 07:39:00,
2013-07-17 03:44:00,71.2,70.6,29.05,NNW,338,0.0,0.0,98,0.00,CLR,FEW,0.00,WeatherDisplay:10.37,2013-07-17 07:44:00,
2013-07-17 03:49:00,71.2,70.6,29.05,NW,315,0.0,0.0,98,0.00,CLR,FEW,0.00,WeatherDisplay:10.37,2013-07-17 07:49:00,
2013-07-17 03:54:00,71.4,70.8,29.05,WNW,292,0.0,0.0,98,0.00,CLR,FEW,0.00,WeatherDisplay:10.37,2013-07-17 07:54:00,
2013-07-17 03:59:00,71.4,70.8,29.05,SW,225,0.0,0.0,98,0.00,CLR,FEW,0.00,WeatherDisplay:10.37,2013-07-17 07:59:00,
2013-07-17 04:04:00,71.4,70.8,29.05,SW,225,0.0,0.0,98,0.00,CLR,FEW,0.00,WeatherDisplay:10.37,2013-07-17 08:04:00,
2013-07-17 04:09:00,71.2,70.6,29.05,SW,225,0.0,0.0,98,0.00,CLR,FEW,0.00,WeatherDisplay:10.37,2013-07-17 08:09:00,
2013-07-17 04:14:00,71.2,70.6,29.05,SW,225,0.0,0.0,98,0.00,CLR,FEW,0.00,WeatherDisplay:10.37,2013-07-17 08:14:00,
2013-07-17 04:19:00,71.4,70.8,29.05,SSE,158,0.0,0.0,98,0.00,CLR,FEW,0.00,WeatherDisplay:10.37,2013-07-17 08:19:00,
2013-07-17 04:24:00,71.1,70.5,29.05,NE,45,0.0,0.0,98,0.00,CLR,FEW,0.00,WeatherDisplay:10.37,2013-07-17 08:24:00,
2013-07-17 04:29:00,71.1,70.5,29.05,WNW,292,0.0,0.0,98,0.00,CLR,FEW,0.00,WeatherDisplay:10.37,2013-07-17 08:29:00,
2013-07-17 04:34:00,70.9,70.3,29.05,NW,315,0.0,0.0,98,0.00,CLR,FEW,0.00,WeatherDisplay:10.37,2013-07-17 08:34:00,
2013-07-17 04:39:00,70.9,70.3,29.05,WSW,248,0.0,0.0,98,0.00,CLR,FEW,0.00,WeatherDisplay:10.37,2013-07-17 08:39:00,
2013-07-17 04:44:00,70.9,70.3,29.05,NE,45,0.0,0.0,98,0.00,CLR,FEW,0.00,WeatherDisplay:10.37,2013-07-17 08:44:00,
2013-07-17 04:50:00,70.9,70.3,29.05,WNW,292,0.0,0.0,98,0.00,CLR,FEW,0.00,WeatherDisplay:10.37,2013-07-17 08:50:00,
2013-07-17 04:55:00,70.7,70.1,29.05,West,270,0.0,0.0,98,0.00,CLR,FEW,0.00,WeatherDisplay:10.37,2013-07-17 08:55:00,
2013-07-17 05:00:00,70.7,70.1,29.05,NW,315,0.0,0.0,98,0.00,CLR,FEW,0.00,WeatherDisplay:10.37,2013-07-17 09:00:00,
2013-07-17 05:05:00,70.5,69.9,29.06,WNW,292,0.0,0.0,98,0.00,CLR,FEW,0.00,WeatherDisplay:10.37,2013-07-17 09:05:00,
2013-07-17 05:10:00,70.5,69.9,29.06,WNW,292,0.0,0.0,98,0.00,CLR,FEW,0.00,WeatherDisplay:10.37,2013-07-17 09:10:00,
2013-07-17 05:15:00,70.5,69.9,29.06,West,270,0.0,0.0,98,0.00,CLR,FEW,0.00,WeatherDisplay:10.37,2013-07-17 09:15:00,
2013-07-17 05:20:00,70.5,69.9,29.06,WNW,292,0.0,0.0,98,0.00,CLR,FEW,0.00,WeatherDisplay:10.37,2013-07-17 09:20:00,
2013-07-17 05:25:00,70.3,69.7,29.06,East,90,0.0,0.0,98,0.00,CLR,FEW,0.00,WeatherDisplay:10.37,2013-07-17 09:25:00,
2013-07-17 05:30:00,70.3,69.7,29.05,ESE,112,0.0,0.0,98,0.00,CLR,FEW,0.00,WeatherDisplay:10.37,2013-07-17 09:30:00,
2013-07-17 05:35:00,70.3,69.7,29.05,SW,225,0.0,0.0,98,0.00,CLR,FEW,0.00,WeatherDisplay:10.37,2013-07-17 09:35:00,
2013-07-17 05:40:00,70.3,69.7,29.05,NW,315,0.0,0.0,98,0.00,CLR,FEW,0.00,WeatherDisplay:10.37,2013-07-17 09:40:00,
2013-07-17 05:45:00,70.3,69.7,29.05,NNW,338,0.0,0.0,98,0.00,CLR,FEW,0.00,WeatherDisplay:10.37,2013-07-17 09:45:00,
2013-07-17 05:50:00,70.3,69.7,29.06,West,270,0.0,0.0,98,0.00,CLR,FEW,0.00,WeatherDisplay:10.37,2013-07-17 09:50:00,
2013-07-17 05:55:00,70.2,69.6,29.06,WSW,248,0.0,0.0,98,0.00,CLR,FEW,0.00,WeatherDisplay:10.37,2013-07-17 09:55:00,
2013-07-17 06:00:00,70.2,69.6,29.06,SW,225,0.0,0.0,98,0.00,CLR,FEW,0.00,WeatherDisplay:10.37,2013-07-17 10:00:00,
2013-07-17 06:05:00,70.2,69.6,29.06,ESE,112,0.0,0.0,98,0.00,CLR,FEW,0.00,WeatherDisplay:10.37,2013-07-17 10:05:00,
2013-07-17 06:10:00,70.3,69.7,29.06,ESE,112,0.0,0.0,98,0.00,CLR,FEW,0.00,WeatherDisplay:10.37,2013-07-17 10:10:00,
2013-07-17 06:15:00,70.3,69.7,29.06,ESE,112,0.0,0.0,98,0.00,CLR,FEW,0.00,WeatherDisplay:10.37,2013-07-17 10:15:00,
2013-07-17 06:20:00,70.3,69.7,29.06,ESE,112,0.0,0.0,98,0.00,CLR,FEW,0.00,WeatherDisplay:10.37,2013-07-17 10:20:00,
2013-07-17 06:25:00,70.2,69.6,29.06,ESE,112,0.0,0.0,98,0.00,CLR,FEW,0.00,WeatherDisplay:10.37,2013-07-17 10:25:00,
2013-07-17 06:30:00,70.2,69.6,29.07,WSW,248,0.0,0.0,98,0.00,CLR,FEW,0.00,WeatherDisplay:10.37,2013-07-17 10:30:00,
2013-07-17 06:35:00,70.2,69.6,29.07,WSW,248,0.0,0.0,98,0.00,CLR,FEW,0.00,WeatherDisplay:10.37,2013-07-17 10:35:00,
2013-07-17 06:40:00,70.2,69.6,29.07,WSW,248,0.0,0.0,98,0.00,CLR,FEW,0.00,WeatherDisplay:10.37,2013-07-17 10:40:00,
2013-07-17 06:45:00,70.2,69.6,29.07,WSW,248,0.0,0.0,98,0.00,CLR,FEW,0.00,WeatherDisplay:10.37,2013-07-17 10:45:00,
2013-07-17 06:50:00,70.2,69.6,29.07,NW,315,0.0,0.0,98,0.00,CLR,FEW,0.00,WeatherDisplay:10.37,2013-07-17 10:50:00,
2013-07-17 06:55:00,70.3,69.7,29.07,NNE,22,0.0,0.0,98,0.00,CLR,FEW,0.00,WeatherDisplay:10.37,2013-07-17 10:55:00,
2013-07-17 07:00:00,70.5,69.9,29.07,North,360,0.0,0.0,98,0.00,CLR,FEW,0.00,WeatherDisplay:10.37,2013-07-17 11:00:00,
2013-07-17 07:05:00,70.5,69.9,29.07,NNW,338,0.0,0.0,98,0.00,CLR,FEW,0.00,WeatherDisplay:10.37,2013-07-17 11:05:00,
2013-07-17 07:10:00,70.9,70.3,29.07,NW,315,0.0,0.0,98,0.00,CLR,FEW,0.00,WeatherDisplay:10.37,2013-07-17 11:10:00,
2013-07-17 07:15:00,71.1,70.5,29.07,NW,315,0.0,0.0,98,0.00,CLR,FEW,0.00,WeatherDisplay:10.37,2013-07-17 11:15:00,
2013-07-17 07:20:00,71.4,70.8,29.07,East,90,0.0,0.0,98,0.00,CLR,FEW,0.00,WeatherDisplay:10.37,2013-07-17 11:20:00,
2013-07-17 07:25:00,71.8,71.2,29.07,ESE,112,0.0,0.0,98,0.00,CLR,FEW,0.00,WeatherDisplay:10.37,2013-07-17 11:25:00,
2013-07-17 07:30:00,72.3,71.7,29.08,WSW,248,0.0,0.0,98,0.00,CLR,FEW,0.00,WeatherDisplay:10.37,2013-07-17 11:30:00,
2013-07-17 07:35:00,73.2,72.6,29.08,NNW,338,0.0,0.0,98,0.00,CLR,FEW,0.00,WeatherDisplay:10.37,2013-07-17 11:35:00,
2013-07-17 07:40:00,73.9,73.3,29.07,West,270,0.0,0.0,98,0.00,CLR,FEW,0.00,WeatherDisplay:10.37,2013-07-17 11:40:00,
2013-07-17 07:45:00,75.0,74.4,29.07,NW,315,0.0,0.0,98,0.00,CLR,FEW,0.00,WeatherDisplay:10.37,2013-07-17 11:45:00,
2013-07-17 07:50:00,76.3,75.7,29.07,North,360,0.0,0.0,98,0.00,CLR,FEW,0.00,WeatherDisplay:10.37,2013-07-17 11:50:00,
2013-07-17 07:55:00,77.5,76.9,29.08,NW,315,2.3,2.3,98,0.00,CLR,FEW,0.00,WeatherDisplay:10.37,2013-07-17 11:55:00,
2013-07-17 08:00:00,78.4,76.8,29.08,NE,45,3.5,3.5,95,0.00,CLR,FEW,0.00,WeatherDisplay:10.37,2013-07-17 12:00:00,
2013-07-17 08:05:00,79.7,76.5,29.08,North,360,2.3,2.3,90,0.00,CLR,FEW,0.00,WeatherDisplay:10.37,2013-07-17 12:05:00,
2013-07-17 08:10:00,80.2,76.0,29.08,NNW,338,1.2,1.2,87,0.00,CLR,FEW,0.00,WeatherDisplay:10.37,2013-07-17 12:10:00,
2013-07-17 08:15:00,81.3,75.6,29.08,NE,45,0.0,0.0,83,0.00,CLR,FEW,0.00,WeatherDisplay:10.37,2013-07-17 12:15:00,
2013-07-17 08:20:00,82.9,76.5,29.08,North,360,1.7,1.7,81,0.00,CLR,FEW,0.00,WeatherDisplay:10.37,2013-07-17 12:20:00,
2013-07-17 08:25:00,82.6,76.2,29.08,NNW,338,3.5,3.5,81,0.00,CLR,FEW,0.00,WeatherDisplay:10.37,2013-07-17 12:25:00,
2013-07-17 08:30:00,83.5,76.7,29.08,NNE,22,2.2,2.2,80,0.00,CLR,FEW,0.00,WeatherDisplay:10.37,2013-07-17 12:30:00,
2013-07-17 08:35:00,83.8,76.6,29.08,NNW,338,3.5,3.5,79,0.00,CLR,FEW,0.00,WeatherDisplay:10.37,2013-07-17 12:35:00,
2013-07-17 08:40:00,84.4,76.8,29.08,NNW,338,3.5,3.5,78,0.00,CLR,FEW,0.00,WeatherDisplay:10.37,2013-07-17 12:40:00,
2013-07-17 08:45:00,84.4,76.8,29.08,NE,45,3.5,3.5,78,0.00,CLR,FEW,0.00,WeatherDisplay:10.37,2013-07-17 12:45:00,
2013-07-17 08:50:00,84.9,76.5,29.08,North,360,3.5,3.5,76,0.00,CLR,FEW,0.00,WeatherDisplay:10.37,2013-07-17 12:50:00,
2013-07-17 08:55:00,86.5,78.0,29.08,North,360,2.2,2.2,76,0.00,CLR,FEW,0.00,WeatherDisplay:10.37,2013-07-17 12:55:00,
2013-07-17 09:00:00,86.9,77.2,29.08,North,360,2.2,2.2,73,0.00,CLR,FEW,0.00,WeatherDisplay:10.37,2013-07-17 13:00:00,
2013-07-17 09:05:00,87.3,77.2,29.08,North,360,3.5,3.5,72,0.00,CLR,FEW,0.00,WeatherDisplay:10.37,2013-07-17 13:05:00,
2013-07-17 09:10:00,87.4,76.8,29.08,North,360,3.5,3.5,71,0.00,CLR,FEW,0.00,WeatherDisplay:10.37,2013-07-17 13:10:00,
2013-07-17 09:15:00,87.3,76.7,29.08,ENE,68,2.7,2.7,71,0.00,CLR,FEW,0.00,WeatherDisplay:10.37,2013-07-17 13:15:00,
2013-07-17 09:20:00,87.3,76.7,29.08,NW,315,0.0,0.0,71,0.00,CLR,FEW,0.00,WeatherDisplay:10.37,2013-07-17 13:20:00,
2013-07-17 09:25:00,88.5,77.9,29.08,West,270,2.3,0.0,71,0.00,CLR,FEW,0.00,WeatherDisplay:10.37,2013-07-17 13:25:00,
2013-07-17 09:30:00,89.6,77.6,29.08,West,270,2.3,2.3,68,0.00,CLR,FEW,0.00,WeatherDisplay:10.37,2013-07-17 13:30:00,
2013-07-17 09:35:00,90.1,77.7,29.08,West,270,3.5,0.0,67,0.00,CLR,FEW,0.00,WeatherDisplay:10.37,2013-07-17 13:35:00,
2013-07-17 09:40:00,88.0,76.5,29.07,NNW,338,2.3,2.3,69,0.00,CLR,FEW,0.00,WeatherDisplay:10.37,2013-07-17 13:40:00,
2013-07-17 09:45:00,84.7,75.9,29.07,WNW,292,1.7,1.7,75,0.00,CLR,FEW,0.00,WeatherDisplay:10.37,2013-07-17 13:45:00,
2013-07-17 09:50:00,86.9,76.8,29.07,NNE,22,2.3,2.3,72,0.00,CLR,FEW,0.00,WeatherDisplay:10.37,2013-07-17 13:50:00,
2013-07-17 09:56:00,86.4,74.6,29.07,North,360,5.8,5.8,68,0.00,CLR,FEW,0.00,WeatherDisplay:10.37,2013-07-17 13:56:00,
2013-07-17 10:01:00,86.7,76.2,29.07,ENE,68,1.7,1.7,71,0.00,CLR,FEW,0.00,WeatherDisplay:10.37,2013-07-17 14:01:00,
2013-07-17 10:06:00,87.3,76.3,29.07,NNE,22,3.5,3.5,70,0.00,CLR,FEW,0.00,WeatherDisplay:10.37,2013-07-17 14:06:00,
2013-07-17 10:11:00,87.8,75.9,29.07,NE,45,2.3,2.4,68,0.00,CLR,FEW,0.00,WeatherDisplay:10.37,2013-07-17 14:11:00,
2013-07-17 10:16:00,88.0,75.7,29.07,North,360,4.6,4.6,67,0.00,CLR,FEW,0.00,WeatherDisplay:10.37,2013-07-17 14:16:00,
2013-07-17 10:21:00,87.8,75.5,29.07,NNE,22,1.7,1.7,67,0.00,CLR,FEW,0.00,WeatherDisplay:10.37,2013-07-17 14:21:00,
2013-07-17 10:26:00,88.3,75.0,29.07,SW,225,2.3,2.3,65,0.00,CLR,FEW,0.00,WeatherDisplay:10.37,2013-07-17 14:26:00,
2013-07-17 10:31:00,89.1,75.3,29.07,West,270,1.2,1.2,64,0.00,CLR,FEW,0.00,WeatherDisplay:10.37,2013-07-17 14:31:00,
2013-07-17 10:36:00,89.6,75.8,29.07,NE,45,3.2,3.2,64,0.00,CLR,FEW,0.00,WeatherDisplay:10.37,2013-07-17 14:36:00,
2013-07-17 10:41:00,90.3,76.0,29.06,North,360,4.7,4.7,63,0.00,CLR,FEW,0.00,WeatherDisplay:10.37,2013-07-17 14:41:00,
2013-07-17 10:46:00,90.0,76.2,29.06,East,90,3.5,3.5,64,0.00,CLR,FEW,0.00,WeatherDisplay:10.37,2013-07-17 14:46:00,
2013-07-17 10:51:00,90.1,75.8,29.06,NNE,22,6.9,6.9,63,0.00,CLR,FEW,0.00,WeatherDisplay:10.37,2013-07-17 14:51:00,
2013-07-17 10:56:00,89.2,75.0,29.06,ESE,112,4.6,4.6,63,0.00,CLR,FEW,0.00,WeatherDisplay:10.37,2013-07-17 14:56:00,
2013-07-17 11:01:00,89.1,74.9,29.06,NE,45,3.7,3.7,63,0.00,CLR,FEW,0.00,WeatherDisplay:10.37,2013-07-17 15:01:00,
2013-07-17 11:06:00,90.3,75.5,29.07,NNE,22,4.6,4.6,62,0.00,CLR,FEW,0.00,WeatherDisplay:10.37,2013-07-17 15:06:00,
2013-07-17 11:11:00,90.7,75.9,29.07,NE,45,4.6,4.6,62,0.00,CLR,FEW,0.00,WeatherDisplay:10.37,2013-07-17 15:11:00,
2013-07-17 11:16:00,91.0,75.2,29.06,ESE,112,3.7,3.7,60,0.00,CLR,FEW,0.00,WeatherDisplay:10.37,2013-07-17 15:16:00,
2013-07-17 11:21:00,89.2,75.0,29.06,East,90,5.3,5.3,63,0.00,CLR,FEW,0.00,WeatherDisplay:10.37,2013-07-17 15:21:00,
2013-07-17 11:26:00,88.3,75.0,29.06,ENE,68,4.6,4.6,65,0.00,CLR,FEW,0.00,WeatherDisplay:10.37,2013-07-17 15:26:00,
2013-07-17 11:31:00,87.6,74.4,29.06,ESE,112,3.7,3.7,65,0.00,CLR,FEW,0.00,WeatherDisplay:10.37,2013-07-17 15:31:00,
2013-07-17 11:36:00,88.5,75.2,29.06,East,90,4.2,4.2,65,0.00,CLR,FEW,0.00,WeatherDisplay:10.37,2013-07-17 15:36:00,
2013-07-17 11:41:00,88.9,75.6,29.06,North,360,4.6,4.6,65,0.00,CLR,FEW,0.00,WeatherDisplay:10.37,2013-07-17 15:41:00,
2013-07-17 11:46:00,90.9,76.1,29.06,NNW,338,6.8,6.8,62,0.00,CLR,FEW,0.00,WeatherDisplay:10.37,2013-07-17 15:46:00,
2013-07-17 11:51:00,90.3,75.5,29.06,NNE,22,5.8,5.8,62,0.00,CLR,FEW,0.00,WeatherDisplay:10.37,2013-07-17 15:51:00,
2013-07-17 11:56:00,90.3,76.5,29.06,ESE,112,5.8,5.8,64,0.00,CLR,FEW,0.00,WeatherDisplay:10.37,2013-07-17 15:56:00,
2013-07-17 12:01:00,89.8,77.4,29.06,East,90,6.9,6.9,67,0.00,CLR,FEW,0.00,WeatherDisplay:10.37,2013-07-17 16:01:00,
2013-07-17 12:06:00,88.9,75.1,29.06,ENE,68,5.8,5.8,64,0.00,CLR,FEW,0.00,WeatherDisplay:10.37,2013-07-17 16:06:00,
2013-07-17 12:11:00,88.3,75.0,29.06,NE,45,5.8,5.8,65,0.00,CLR,FEW,0.00,WeatherDisplay:10.37,2013-07-17 16:11:00,
2013-07-17 12:16:00,87.4,75.1,29.06,ENE,68,5.8,5.8,67,0.00,CLR,FEW,0.00,WeatherDisplay:10.37,2013-07-17 16:16:00,
2013-07-17 12:21:00,88.0,76.1,29.06,East,90,3.5,3.5,68,0.00,CLR,FEW,0.00,WeatherDisplay:10.37,2013-07-17 16:21:00,
2013-07-17 12:26:00,89.4,76.1,29.05,WNW,292,2.3,2.3,65,0.00,CLR,FEW,0.00,WeatherDisplay:10.37,2013-07-17 16:26:00,
2013-07-17 12:31:00,90.3,75.0,29.05,East,90,5.8,5.8,61,0.00,CLR,FEW,0.00,WeatherDisplay:10.37,2013-07-17 16:31:00,
2013-07-17 12:36:00,90.3,77.4,29.05,NE,45,4.6,4.6,66,0.00,CLR,FEW,0.00,WeatherDisplay:10.37,2013-07-17 16:36:00,
2013-07-17 12:41:00,90.9,75.6,29.05,NNW,338,6.8,6.8,61,0.00,CLR,FEW,0.00,WeatherDisplay:10.37,2013-07-17 16:41:00,
2013-07-17 12:46:00,90.9,75.1,29.05,East,90,3.5,3.5,60,0.00,CLR,FEW,0.00,WeatherDisplay:10.37,2013-07-17 16:46:00,
2013-07-17 12:51:00,91.0,74.7,29.05,East,90,5.8,5.8,59,0.00,CLR,FEW,0.00,WeatherDisplay:10.37,2013-07-17 16:51:00,
2013-07-17 12:56:00,91.8,76.4,29.05,NE,45,3.5,3.5,61,0.00,CLR,FEW,0.00,WeatherDisplay:10.37,2013-07-17 16:56:00,
2013-07-17 13:01:00,91.2,74.9,29.05,East,90,6.9,6.9,59,0.00,CLR,FEW,0.00,WeatherDisplay:10.37,2013-07-17 17:01:00,
2013-07-17 13:06:00,91.0,75.2,29.05,ESE,112,5.8,5.8,60,0.00,CLR,FEW,0.00,WeatherDisplay:10.37,2013-07-17 17:06:00,
2013-07-17 13:11:00,91.2,74.9,29.05,East,90,6.9,6.9,59,0.00,CLR,FEW,0.00,WeatherDisplay:10.37,2013-07-17 17:11:00,
2013-07-17 13:16:00,91.2,75.9,29.05,ENE,68,4.6,4.6,61,0.00,CLR,FEW,0.00,WeatherDisplay:10.37,2013-07-17 17:16:00,
2013-07-17 13:21:00,90.1,74.3,29.05,NW,315,5.8,5.8,60,0.00,CLR,FEW,0.00,WeatherDisplay:10.37,2013-07-17 17:21:00,
2013-07-17 13:26:00,89.8,75.0,29.04,ENE,68,5.8,5.8,62,0.00,CLR,FEW,0.00,WeatherDisplay:10.37,2013-07-17 17:26:00,
2013-07-17 13:31:00,90.9,77.5,29.04,ESE,112,2.3,2.7,65,0.00,CLR,FEW,0.00,WeatherDisplay:10.37,2013-07-17 17:31:00,
2013-07-17 13:36:00,90.5,75.7,29.04,East,90,4.6,4.6,62,0.00,CLR,FEW,0.00,WeatherDisplay:10.37,2013-07-17 17:36:00,
2013-07-17 13:41:00,90.1,75.8,29.04,East,90,4.6,4.6,63,0.00,CLR,FEW,0.00,WeatherDisplay:10.37,2013-07-17 17:41:00,
2013-07-17 13:47:00,90.0,75.7,29.04,South,180,4.7,4.7,63,0.00,CLR,FEW,0.00,WeatherDisplay:10.37,2013-07-17 17:47:00,
2013-07-17 13:52:00,90.9,76.6,29.03,ESE,112,4.6,4.6,63,0.00,CLR,FEW,0.00,WeatherDisplay:10.37,2013-07-17 17:52:00,
2013-07-17 13:57:00,90.5,77.1,29.03,ESE,112,6.9,6.9,65,0.00,CLR,FEW,0.00,WeatherDisplay:10.37,2013-07-17 17:57:00,
2013-07-17 14:02:00,91.0,77.1,29.03,NNE,22,4.6,4.6,64,0.00,CLR,FEW,0.00,WeatherDisplay:10.37,2013-07-17 18:02:00,
2013-07-17 14:07:00,91.2,76.8,29.03,NE,45,3.5,3.5,63,0.00,CLR,FEW,0.00,WeatherDisplay:10.37,2013-07-17 18:07:00,
2013-07-17 14:12:00,91.2,76.4,29.03,NNE,22,2.7,2.7,62,0.00,CLR,FEW,0.00,WeatherDisplay:10.37,2013-07-17 18:12:00,
2013-07-17 14:17:00,91.4,74.0,29.02,SW,225,5.8,5.8,57,0.00,CLR,FEW,0.00,WeatherDisplay:10.37,2013-07-17 18:17:00,
2013-07-17 14:22:00,92.7,75.8,29.02,ESE,112,5.8,5.8,58,0.00,CLR,FEW,0.00,WeatherDisplay:10.37,2013-07-17 18:22:00,
2013-07-17 14:27:00,92.1,75.2,29.01,West,270,1.2,1.2,58,0.00,CLR,FEW,0.00,WeatherDisplay:10.37,2013-07-17 18:27:00,
2013-07-17 14:32:00,91.8,75.9,29.01,NNE,22,2.3,2.3,60,0.00,CLR,FEW,0.00,WeatherDisplay:10.37,2013-07-17 18:32:00,
2013-07-17 14:37:00,91.6,73.7,29.01,ESE,112,2.3,2.3,56,0.00,CLR,FEW,0.00,WeatherDisplay:10.37,2013-07-17 18:37:00,
2013-07-17 14:42:00,91.0,73.7,29.00,NE,45,4.6,4.6,57,0.00,CLR,FEW,0.00,WeatherDisplay:10.37,2013-07-17 18:42:00,
2013-07-17 14:47:00,90.9,74.6,29.00,NE,45,2.3,2.3,59,0.00,CLR,FEW,0.00,WeatherDisplay:10.37,2013-07-17 18:47:00,
2013-07-17 14:52:00,91.2,75.4,29.00,North,360,1.2,1.2,60,0.00,CLR,FEW,0.00,WeatherDisplay:10.37,2013-07-17 18:52:00,
2013-07-17 14:57:00,91.6,75.2,29.00,ESE,112,4.6,4.6,59,0.00,CLR,FEW,0.00,WeatherDisplay:10.37,2013-07-17 18:57:00,
2013-07-17 15:02:00,91.0,74.7,28.99,North,360,2.2,2.2,59,0.00,CLR,FEW,0.00,WeatherDisplay:10.37,2013-07-17 19:02:00,
2013-07-17 15:07:00,92.3,76.4,28.99,SSE,158,2.3,2.3,60,0.00,CLR,FEW,0.00,WeatherDisplay:10.37,2013-07-17 19:07:00,
2013-07-17 15:12:00,92.8,76.9,28.99,SSE,158,2.3,2.3,60,0.00,CLR,FEW,0.00,WeatherDisplay:10.37,2013-07-17 19:12:00,
2013-07-17 15:17:00,92.1,75.7,28.99,North,360,4.6,4.6,59,0.00,CLR,FEW,0.00,WeatherDisplay:10.37,2013-07-17 19:17:00,
2013-07-17 15:22:00,92.3,75.4,28.99,SE,135,4.6,4.6,58,0.00,CLR,FEW,0.00,WeatherDisplay:10.37,2013-07-17 19:22:00,
2013-07-17 15:27:00,92.3,78.4,28.98,ESE,112,4.6,4.6,64,0.00,CLR,FEW,0.00,WeatherDisplay:10.37,2013-07-17 19:27:00,
2013-07-17 15:32:00,93.2,75.7,28.98,ESE,112,4.6,4.6,57,0.00,CLR,FEW,0.00,WeatherDisplay:10.37,2013-07-17 19:32:00,
2013-07-17 15:37:00,91.8,75.9,28.98,West,270,3.5,3.5,60,0.00,CLR,FEW,0.00,WeatherDisplay:10.37,2013-07-17 19:37:00,
2013-07-17 15:42:00,91.9,76.0,28.98,SSE,158,4.6,4.6,60,0.00,CLR,FEW,0.00,WeatherDisplay:10.37,2013-07-17 19:42:00,
2013-07-17 15:47:00,91.2,74.9,28.98,SW,225,1.2,1.2,59,0.00,CLR,FEW,0.00,WeatherDisplay:10.37,2013-07-17 19:47:00,
2013-07-17 15:52:00,93.9,74.7,28.98,North,360,2.3,2.3,54,0.00,CLR,FEW,0.00,WeatherDisplay:10.37,2013-07-17 19:52:00,
2013-07-17 15:57:00,93.9,74.7,28.98,WSW,248,1.2,1.3,54,0.00,CLR,FEW,0.00,WeatherDisplay:10.37,2013-07-17 19:57:00,
2013-07-17 16:02:00,94.1,76.5,28.97,NNW,338,2.3,2.3,57,0.00,CLR,FEW,0.00,WeatherDisplay:10.37,2013-07-17 20:02:00,
2013-07-17 16:07:00,94.6,75.9,28.97,ENE,68,3.5,3.5,55,0.00,CLR,FEW,0.00,WeatherDisplay:10.37,2013-07-17 20:07:00,
2013-07-17 16:12:00,92.3,75.4,28.97,NNW,338,6.9,6.9,58,0.00,CLR,FEW,0.00,WeatherDisplay:10.37,2013-07-17 20:12:00,
2013-07-17 16:17:00,89.1,73.9,28.97,WNW,292,6.9,6.9,61,0.00,CLR,FEW,0.00,WeatherDisplay:10.37,2013-07-17 20:17:00,
2013-07-17 16:22:00,86.2,74.4,28.97,West,270,3.5,3.5,68,0.00,CLR,FEW,0.00,WeatherDisplay:10.37,2013-07-17 20:22:00,
2013-07-17 16:27:00,86.0,74.6,28.96,NNW,338,7.8,7.8,69,0.00,CLR,FEW,0.00,WeatherDisplay:10.37,2013-07-17 20:27:00,
2013-07-17 16:32:00,86.7,73.1,28.96,SSE,158,5.8,5.8,64,0.00,CLR,FEW,0.00,WeatherDisplay:10.37,2013-07-17 20:32:00,
2013-07-17 16:37:00,86.4,72.3,28.96,North,360,5.8,5.8,63,0.00,CLR,FEW,0.00,WeatherDisplay:10.37,2013-07-17 20:37:00,
2013-07-17 16:42:00,85.1,71.5,28.96,NNE,22,5.8,5.8,64,0.00,CLR,FEW,0.00,WeatherDisplay:10.37,2013-07-17 20:42:00,
2013-07-17 16:47:00,84.6,72.0,28.96,North,360,3.2,3.2,66,0.00,CLR,FEW,0.00,WeatherDisplay:10.37,2013-07-17 20:47:00,
2013-07-17 16:52:00,84.4,71.3,28.95,NW,315,4.6,4.6,65,0.00,CLR,FEW,0.00,WeatherDisplay:10.37,2013-07-17 20:52:00,
2013-07-17 16:57:00,84.9,73.2,28.95,NNW,338,3.2,3.2,68,0.00,CLR,FEW,0.00,WeatherDisplay:10.37,2013-07-17 20:57:00,
2013-07-17 17:02:00,85.6,73.4,28.94,NNE,22,3.5,3.5,67,0.00,CLR,FEW,0.00,WeatherDisplay:10.37,2013-07-17 21:02:00,
2013-07-17 17:07:00,86.5,73.3,28.94,WNW,292,2.3,2.3,65,0.00,CLR,FEW,0.00,WeatherDisplay:10.37,2013-07-17 21:07:00,
2013-07-17 17:12:00,86.7,73.1,28.94,WSW,248,2.3,2.3,64,0.00,CLR,FEW,0.00,WeatherDisplay:10.37,2013-07-17 21:12:00,
2013-07-17 17:17:00,86.7,73.5,28.95,West,270,1.2,1.2,65,0.00,CLR,FEW,0.00,WeatherDisplay:10.37,2013-07-17 21:17:00,
2013-07-17 17:22:00,86.5,73.8,28.95,NNE,22,3.5,3.5,66,0.00,CLR,FEW,0.00,WeatherDisplay:10.37,2013-07-17 21:22:00,
2013-07-17 17:27:00,85.6,72.9,28.95,NNW,338,4.6,4.6,66,0.00,CLR,FEW,0.00,WeatherDisplay:10.37,2013-07-17 21:27:00,
2013-07-17 17:32:00,84.9,73.2,28.95,WNW,292,6.3,6.3,68,0.00,CLR,FEW,0.00,WeatherDisplay:10.37,2013-07-17 21:32:00,
2013-07-17 17:37:00,84.6,71.5,28.95,NNE,22,10.4,10.4,65,0.00,CLR,FEW,0.00,WeatherDisplay:10.37,2013-07-17 21:37:00,
2013-07-17 17:42:00,84.0,68.6,28.96,NNW,338,13.8,13.8,60,0.00,CLR,FEW,0.00,WeatherDisplay:10.37,2013-07-17 21:42:00,
2013-07-17 17:47:00,82.9,66.1,28.96,NW,315,10.4,10.4,57,0.00,CLR,FEW,0.00,WeatherDisplay:10.37,2013-07-17 21:47:00,
2013-07-17 17:52:00,82.0,65.3,28.97,NNW,338,9.4,9.4,57,0.00,CLR,FEW,0.00,WeatherDisplay:10.37,2013-07-17 21:52:00,
2013-07-17 17:57:00,80.6,65.4,28.97,NE,45,10.4,10.4,60,0.00,CLR,FEW,0.00,WeatherDisplay:10.37,2013-07-17 21:57:00,
2013-07-17 18:02:00,79.3,67.0,28.97,NNW,338,12.7,12.7,66,0.00,CLR,FEW,0.00,WeatherDisplay:10.37,2013-07-17 22:02:00,
2013-07-17 18:07:00,78.6,67.2,28.97,North,360,8.8,9.3,68,0.00,CLR,FEW,0.00,WeatherDisplay:10.37,2013-07-17 22:07:00,
2013-07-17 18:12:00,78.1,67.1,28.97,NNE,22,6.3,6.3,69,0.00,CLR,FEW,0.00,WeatherDisplay:10.37,2013-07-17 22:12:00,
2013-07-17 18:17:00,74.5,68.3,28.96,NE,45,8.1,8.1,81,0.02,RA,FEW,0.03,WeatherDisplay:10.37,2013-07-17 22:17:00,
2013-07-17 18:19:00,73.8,68.3,28.96,NNE,22,8.1,8.1,83,0.03,RA,FEW,0.04,WeatherDisplay:10.37,2013-07-17 22:19:00,
2013-07-17 18:24:00,72.5,68.4,28.96,NNW,338,9.4,9.4,87,0.07,RA,FEW,0.07,WeatherDisplay:10.37,2013-07-17 22:24:00,
2013-07-17 18:29:00,71.4,68.3,28.97,NNW,338,7.3,7.3,90,0.09,RA,FEW,0.09,WeatherDisplay:10.37,2013-07-17 22:29:00,
2013-07-17 18:34:00,71.4,69.0,28.97,SE,135,4.6,4.6,92,0.13,RA,FEW,0.13,WeatherDisplay:10.37,2013-07-17 22:34:00,
2013-07-17 18:39:00,71.6,71.0,28.98,SW,225,1.7,1.7,98,0.13,RA,FEW,0.13,WeatherDisplay:10.37,2013-07-17 22:39:00,
2013-07-17 18:44:00,71.8,71.2,28.98,NNW,338,2.3,2.3,98,0.13,CLR,FEW,0.13,WeatherDisplay:10.37,2013-07-17 22:44:00,
2013-07-17 18:49:00,71.6,71.0,28.98,SSW,202,3.2,3.2,98,0.13,CLR,FEW,0.13,WeatherDisplay:10.37,2013-07-17 22:49:00,
2013-07-17 18:54:00,71.2,70.6,28.99,SW,225,5.3,5.3,98,0.13,CLR,FEW,0.13,WeatherDisplay:10.37,2013-07-17 22:54:00,
2013-07-17 18:59:00,71.2,70.6,28.99,ENE,68,6.3,6.3,98,0.13,CLR,FEW,0.13,WeatherDisplay:10.37,2013-07-17 22:59:00,
2013-07-17 19:04:00,71.1,70.5,29.02,NE,45,6.9,6.9,98,0.13,CLR,FEW,0.13,WeatherDisplay:10.37,2013-07-17 23:04:00,
2013-07-17 19:09:00,72.0,70.8,29.02,NNE,22,16.1,16.1,96,0.13,CLR,FEW,0.13,WeatherDisplay:10.37,2013-07-17 23:09:00,
2013-07-17 19:14:00,71.8,69.3,29.05,ESE,112,13.8,13.8,92,0.13,CLR,FEW,0.13,WeatherDisplay:10.37,2013-07-17 23:14:00,
2013-07-17 19:19:00,70.7,70.1,29.05,ESE,112,6.9,6.9,98,0.12,RA,FEW,0.15,WeatherDisplay:10.37,2013-07-17 23:19:00,
2013-07-17 19:24:00,70.5,69.9,29.05,ESE,112,5.3,5.3,98,0.10,RA,FEW,0.17,WeatherDisplay:10.37,2013-07-17 23:24:00,
2013-07-17 19:29:00,70.0,69.4,29.02,NE,45,5.8,5.8,98,0.09,RA,FEW,0.18,WeatherDisplay:10.37,2013-07-17 23:29:00,
2013-07-17 19:34:00,69.8,69.2,29.02,ENE,68,5.8,5.8,98,0.06,RA,FEW,0.19,WeatherDisplay:10.37,2013-07-17 23:34:00,
2013-07-17 19:39:00,69.8,69.2,29.01,ENE,68,5.8,5.8,98,0.06,RA,FEW,0.19,WeatherDisplay:10.37,2013-07-17 23:39:00,
2013-07-17 19:44:00,69.4,68.8,29.01,ESE,112,6.9,6.9,98,0.06,CLR,FEW,0.19,WeatherDisplay:10.37,2013-07-17 23:44:00,
2013-07-17 19:49:00,69.4,68.8,29.01,SE,135,4.6,4.6,98,0.06,CLR,FEW,0.19,WeatherDisplay:10.37,2013-07-17 23:49:00,
2013-07-17 19:54:00,69.4,68.8,29.01,ESE,112,4.2,4.2,98,0.06,CLR,FEW,0.19,WeatherDisplay:10.37,2013-07-17 23:54:00,
2013-07-17 19:59:00,69.3,68.7,29.01,ESE,112,3.5,3.5,98,0.06,CLR,FEW,0.19,WeatherDisplay:10.37,2013-07-17 23:59:00,
2013-07-17 20:04:00,69.3,68.7,29.02,East,90,2.7,2.7,98,0.06,CLR,FEW,0.19,WeatherDisplay:10.37,2013-07-18 00:04:00,
2013-07-17 20:09:00,69.3,68.7,29.02,NNE,22,6.9,6.9,98,0.06,CLR,FEW,0.19,WeatherDisplay:10.37,2013-07-18 00:09:00,
2013-07-17 20:14:00,69.3,68.7,29.04,ENE,68,3.5,3.5,98,0.07,RA,FEW,0.20,WeatherDisplay:10.37,2013-07-18 00:14:00,
2013-07-17 20:19:00,69.3,68.7,29.04,ENE,68,3.5,3.5,98,0.06,RA,FEW,0.21,WeatherDisplay:10.37,2013-07-18 00:19:00,
2013-07-17 20:24:00,69.3,68.7,29.04,NE,45,5.8,5.8,98,0.06,RA,FEW,0.23,WeatherDisplay:10.37,2013-07-18 00:24:00,
2013-07-17 20:29:00,69.1,68.5,29.05,NE,45,4.6,4.7,98,0.06,RA,FEW,0.24,WeatherDisplay:10.37,2013-07-18 00:29:00,
2013-07-17 20:34:00,69.1,68.5,29.05,NE,45,4.6,4.6,98,0.07,RA,FEW,0.26,WeatherDisplay:10.37,2013-07-18 00:34:00,
2013-07-17 20:39:00,69.1,68.5,29.04,NNE,22,5.8,5.8,98,0.09,RA,FEW,0.28,WeatherDisplay:10.37,2013-07-18 00:39:00,
2013-07-17 20:44:00,69.1,68.5,29.04,NNW,338,5.8,5.8,98,0.10,RA,FEW,0.30,WeatherDisplay:10.37,2013-07-18 00:44:00,
2013-07-17 20:49:00,68.9,68.3,29.04,NNE,22,5.8,5.8,98,0.12,RA,FEW,0.31,WeatherDisplay:10.37,2013-07-18 00:49:00,
2013-07-17 20:54:00,68.9,68.3,29.03,NNE,22,4.6,4.6,98,0.13,RA,FEW,0.32,WeatherDisplay:10.37,2013-07-18 00:54:00,
2013-07-17 20:59:00,68.9,68.3,29.03,NNW,338,3.5,3.5,98,0.14,RA,FEW,0.33,WeatherDisplay:10.37,2013-07-18 00:59:00,
2013-07-17 21:04:00,68.7,68.1,29.03,East,90,0.0,0.5,98,0.14,RA,FEW,0.33,WeatherDisplay:10.37,2013-07-18 01:04:00,
2013-07-17 21:09:00,68.7,68.1,29.03,West,270,0.0,0.0,98,0.15,RA,FEW,0.34,WeatherDisplay:10.37,2013-07-18 01:09:00,
2013-07-17 21:14:00,68.7,68.1,29.02,West,270,0.0,0.0,98,0.14,RA,FEW,0.34,WeatherDisplay:10.37,2013-07-18 01:14:00,
2013-07-17 21:19:00,68.9,68.3,29.02,West,270,0.0,0.0,98,0.14,RA,FEW,0.35,WeatherDisplay:10.37,2013-07-18 01:19:00,
2013-07-17 21:24:00,68.9,68.3,29.02,WSW,248,3.5,3.5,98,0.12,RA,FEW,0.35,WeatherDisplay:10.37,2013-07-18 01:24:00,
2013-07-17 21:29:00,68.9,68.3,29.02,SSE,158,2.3,0.0,98,0.11,CLR,FEW,0.36,WeatherDisplay:10.37,2013-07-18 01:29:00,
2013-07-17 21:34:00,68.9,68.3,29.02,WNW,292,0.0,0.0,98,0.10,RA,FEW,0.36,WeatherDisplay:10.37,2013-07-18 01:34:00,
2013-07-17 21:39:00,69.1,68.5,29.01,WNW,292,0.0,0.0,98,0.09,RA,FEW,0.37,WeatherDisplay:10.37,2013-07-18 01:39:00,
2013-07-17 21:44:00,69.1,68.5,29.01,NNW,338,2.3,2.3,98,0.08,RA,FEW,0.38,WeatherDisplay:10.37,2013-07-18 01:44:00,
2013-07-17 21:49:00,69.1,68.5,29.02,SSW,202,2.3,2.3,98,0.08,RA,FEW,0.39,WeatherDisplay:10.37,2013-07-18 01:49:00,
2013-07-17 21:55:00,69.1,68.5,29.02,West,270,1.2,1.2,98,0.07,RA,FEW,0.39,WeatherDisplay:10.37,2013-07-18 01:55:00,
2013-07-17 22:00:00,68.9,68.3,29.02,NW,315,0.0,0.0,98,0.07,RA,FEW,0.40,WeatherDisplay:10.37,2013-07-18 02:00:00,
2013-07-17 22:05:00,69.1,68.5,29.02,NNW,338,0.0,0.0,98,0.07,RA,FEW,0.40,WeatherDisplay:10.37,2013-07-18 02:05:00,
2013-07-17 22:10:00,69.1,68.5,29.02,SSW,202,2.3,2.3,98,0.07,RA,FEW,0.41,WeatherDisplay:10.37,2013-07-18 02:10:00,
2013-07-17 22:15:00,68.9,68.3,29.01,WSW,248,1.2,1.2,98,0.07,RA,FEW,0.41,WeatherDisplay:10.37,2013-07-18 02:15:00,
2013-07-17 22:20:00,68.9,68.3,29.01,West,270,2.3,2.3,98,0.06,CLR,FEW,0.41,WeatherDisplay:10.37,2013-07-18 02:20:00,
2013-07-17 22:25:00,69.1,68.5,29.01,NNE,22,2.3,2.3,98,0.06,CLR,FEW,0.41,WeatherDisplay:10.37,2013-07-18 02:25:00,
2013-07-17 22:30:00,69.1,68.5,29.02,NW,315,2.3,2.3,98,0.05,CLR,FEW,0.41,WeatherDisplay:10.37,2013-07-18 02:30:00,
2013-07-17 22:35:00,69.1,68.5,29.02,SSE,158,2.3,2.3,98,0.05,CLR,FEW,0.41,WeatherDisplay:10.37,2013-07-18 02:35:00,
2013-07-17 22:40:00,69.1,68.5,29.03,South,180,3.5,3.5,98,0.04,CLR,FEW,0.41,WeatherDisplay:10.37,2013-07-18 02:40:00,
2013-07-17 22:45:00,68.9,68.3,29.03,WSW,248,3.5,3.5,98,0.03,CLR,FEW,0.41,WeatherDisplay:10.37,2013-07-18 02:45:00,
2013-07-17 22:50:00,68.9,68.3,29.03,SW,225,0.0,0.0,98,0.02,CLR,FEW,0.41,WeatherDisplay:10.37,2013-07-18 02:50:00,
2013-07-17 22:55:00,69.1,68.5,29.03,SW,225,2.7,2.7,98,0.02,CLR,FEW,0.41,WeatherDisplay:10.37,2013-07-18 02:55:00,
2013-07-17 23:00:00,69.1,68.5,29.03,SSW,202,0.0,0.0,98,0.01,CLR,FEW,0.41,WeatherDisplay:10.37,2013-07-18 03:00:00,
2013-07-17 23:05:00,69.1,68.5,29.03,SSW,202,2.3,2.3,98,0.01,CLR,FEW,0.41,WeatherDisplay:10.37,2013-07-18 03:05:00,
2013-07-17 23:10:00,69.1,68.5,29.03,West,270,2.3,2.3,98,0.00,CLR,FEW,0.41,WeatherDisplay:10.37,2013-07-18 03:10:00,
2013-07-17 23:15:00,69.3,68.7,29.04,West,270,3.5,3.5,98,0.00,CLR,FEW,0.41,WeatherDisplay:10.37,2013-07-18 03:15:00,
2013-07-17 23:20:00,69.3,68.7,29.04,West,270,3.5,3.5,98,0.00,CLR,FEW,0.41,WeatherDisplay:10.37,2013-07-18 03:20:00,
2013-07-17 23:25:00,69.4,68.8,29.04,SSW,202,3.7,3.7,98,0.00,CLR,FEW,0.41,WeatherDisplay:10.37,2013-07-18 03:25:00,
2013-07-17 23:30:00,69.4,68.8,29.03,SW,225,2.3,2.3,98,0.00,CLR,FEW,0.41,WeatherDisplay:10.37,2013-07-18 03:30:00,
2013-07-17 23:35:00,69.4,68.8,29.03,SSW,202,5.8,5.8,98,0.00,CLR,FEW,0.41,WeatherDisplay:10.37,2013-07-18 03:35:00,
2013-07-17 23:40:00,69.6,69.0,29.04,SW,225,3.5,3.5,98,0.00,CLR,FEW,0.41,WeatherDisplay:10.37,2013-07-18 03:40:00,
2013-07-17 23:45:00,69.6,69.0,29.04,SW,225,4.2,4.2,98,0.00,CLR,FEW,0.41,WeatherDisplay:10.37,2013-07-18 03:45:00,
2013-07-17 23:50:00,69.6,69.0,29.03,South,180,4.6,4.6,98,0.00,CLR,FEW,0.41,WeatherDisplay:10.37,2013-07-18 03:50:00,
2013-07-17 23:55:00,69.6,69.0,29.03,WSW,248,4.6,4.6,98,0.00,CLR,FEW,0.41,WeatherDisplay:10.37,2013-07-18 03:55:00,